Weather History for Warrensburg, MO

Change the Weather History Date:

Thursday, May 23, 2013

  Actual Average (KSZL) Record (KSZL)
Temperature  
Mean Temperature 58 °F -  
Max Temperature 66 °F 74 °F 87 °F (1998)
Min Temperature 51 °F 55 °F 46 °F (2001)
Degree Days  
Heating Degree Days 6    
Growing Degree Days 8 (Base 50)    
Moisture  
Dew Point 51 °F    
Average Humidity 76    
Maximum Humidity 94    
Minimum Humidity 64    
Precipitation  
Precipitation 0.01 in - - ()
Sea Level Pressure  
Sea Level Pressure 30.10 in    
Wind  
Wind Speed 5 mph (NW)    
Max Wind Speed 12 mph    
Max Gust Speed 17 mph    
Visibility 10 miles    
Events      
Averages and records for this station are not official NWS values.
T = Trace of Precipitation, MM = Missing Value Source: NWS Daily Summary

Daily Weather History Graph

Daily Weather History Graph

Search for Another Location

Airport:

Trip Planner

Search our weather history database for the weather conditions in past years. The results will help you decide how hot, cold, wet, or windy it might be!

Date:

Astronomy

May. 23, 2013 Rise Set
Actual Time 5:56 AM CDT 8:27 PM CDT
Civil Twilight 5:25 AM CDT 8:58 PM CDT
Nautical Twilight 4:47 AM CDT 9:36 PM CDT
Astronomical Twilight 4:05 AM CDT 10:19 PM CDT
Moon 7:01 PM CDT (5/23) 4:40 AM CDT (5/23)
Length of Visible Light 15h 32m
Length of Day
14h 31m
Waxing Gibbous, 97% of the Moon is Illuminated
May 23
Waxing Gibbous
May 24
Full
May 31
Last Quarter
Jun 8
New
Jun 16
First Quarter

Hourly Weather History & Observations

Time (CDT) Temp. Dew Point Humidity Pressure Visibility Wind Dir Wind Speed Gust Speed Precip Events Conditions
12:15 AM 59.0 °F 53.6 °F 82% 29.93 in 10.0 mi Calm Calm - N/A   Mostly Cloudy
12:35 AM 59.0 °F 51.8 °F 77% 29.94 in 10.0 mi West 3.5 mph - N/A   Scattered Clouds
12:55 AM 59.0 °F 51.8 °F 77% 29.94 in 10.0 mi West 3.5 mph - N/A   Mostly Cloudy
1:15 AM 59.0 °F 51.8 °F 77% 29.94 in 10.0 mi West 3.5 mph - N/A   Overcast
1:35 AM 59.0 °F 51.8 °F 77% 29.95 in 10.0 mi West 4.6 mph - N/A   Overcast
1:55 AM 59.0 °F 50.0 °F 72% 29.95 in 10.0 mi WNW 3.5 mph - N/A   Overcast
2:15 AM 59.0 °F 50.0 °F 72% 29.95 in 10.0 mi WNW 3.5 mph - N/A   Overcast
2:35 AM 59.0 °F 50.0 °F 72% 29.95 in 10.0 mi WNW 5.8 mph - N/A   Overcast
2:55 AM 57.2 °F 50.0 °F 77% 29.96 in 10.0 mi West 4.6 mph - N/A   Mostly Cloudy
3:15 AM 55.4 °F 50.0 °F 82% 29.97 in 10.0 mi WNW 4.6 mph - N/A   Mostly Cloudy
3:35 AM 55.4 °F 50.0 °F 82% 29.97 in 10.0 mi WNW 4.6 mph - N/A   Scattered Clouds
3:55 AM 55.4 °F 48.2 °F 77% 29.98 in 10.0 mi West 4.6 mph - N/A   Clear
4:15 AM 53.6 °F 48.2 °F 82% 29.99 in 10.0 mi WNW 5.8 mph - N/A   Clear
4:35 AM 53.6 °F 48.2 °F 82% 30.00 in 10.0 mi WNW 5.8 mph - N/A   Clear
4:55 AM 53.6 °F 48.2 °F 82% 30.00 in 10.0 mi WNW 4.6 mph - N/A   Clear
5:15 AM 53.6 °F 48.2 °F 82% 30.01 in 10.0 mi WNW 4.6 mph - N/A   Clear
5:35 AM 51.8 °F 46.4 °F 82% 30.02 in 10.0 mi West 3.5 mph - N/A   Clear
5:55 AM 51.8 °F 46.4 °F 82% 30.03 in 10.0 mi West 3.5 mph - N/A   Clear
6:15 AM 51.8 °F 46.4 °F 82% 30.04 in 10.0 mi West 5.8 mph - N/A   Clear
6:35 AM 53.6 °F 46.4 °F 77% 30.05 in 10.0 mi West 6.9 mph - N/A   Clear
6:55 AM 53.6 °F 48.2 °F 82% 30.06 in 10.0 mi West 5.8 mph - N/A   Mostly Cloudy
7:15 AM 53.6 °F 48.2 °F 82% 30.07 in 10.0 mi West 6.9 mph - N/A   Overcast
7:35 AM 55.4 °F 48.2 °F 77% 30.08 in 10.0 mi West 8.1 mph - N/A   Overcast
7:55 AM 55.4 °F 48.2 °F 77% 30.08 in 10.0 mi WNW 4.6 mph - N/A   Overcast
8:15 AM 55.4 °F 50.0 °F 82% 30.09 in 10.0 mi West 5.8 mph - 0.01 in   Overcast
8:35 AM 57.2 °F 50.0 °F 77% 30.10 in 10.0 mi WNW 4.6 mph - 0.01 in   Overcast
8:55 AM 57.2 °F 50.0 °F 77% 30.10 in 10.0 mi NW 6.9 mph - 0.01 in   Overcast
9:15 AM 59.0 °F 50.0 °F 72% 30.09 in 10.0 mi NNW 11.5 mph - N/A   Overcast
9:35 AM 59.0 °F 50.0 °F 72% 30.08 in 10.0 mi NNW 11.5 mph - N/A   Overcast
9:55 AM 59.0 °F 50.0 °F 72% 30.09 in 10.0 mi NNW 10.4 mph 17.3 mph N/A   Overcast
10:55 AM 59.0 °F 50.0 °F 72% 30.13 in 10.0 mi NW 3.5 mph - N/A   Overcast
11:15 AM 60.8 °F 51.8 °F 72% 30.13 in 10.0 mi West 6.9 mph - N/A   Overcast
11:35 AM 60.8 °F 51.8 °F 72% 30.15 in 10.0 mi North 4.6 mph - N/A   Overcast
11:55 AM 60.8 °F 51.8 °F 72% 30.15 in 10.0 mi NNW 4.6 mph - N/A   Overcast
12:15 PM 60.8 °F 51.8 °F 72% 30.16 in 10.0 mi WNW 3.5 mph - N/A   Overcast
12:35 PM 62.6 °F 51.8 °F 68% 30.15 in 10.0 mi NW 5.8 mph - N/A   Overcast
12:55 PM 64.4 °F 53.6 °F 68% 30.15 in 10.0 mi North 5.8 mph - N/A   Overcast
1:15 PM 62.6 °F 53.6 °F 72% 30.15 in 10.0 mi NNW 4.6 mph - N/A   Overcast
1:35 PM 64.4 °F 53.6 °F 68% 30.16 in 10.0 mi North 4.6 mph - N/A   Overcast
1:55 PM 64.4 °F 53.6 °F 68% 30.16 in 10.0 mi North 6.9 mph - N/A   Overcast
2:15 PM 64.4 °F 53.6 °F 68% 30.16 in 10.0 mi North 5.8 mph - N/A   Overcast
2:35 PM 66.2 °F 53.6 °F 64% 30.16 in 10.0 mi NNE 6.9 mph - N/A   Mostly Cloudy
2:55 PM 64.4 °F 53.6 °F 68% 30.16 in 10.0 mi North 4.6 mph - N/A   Overcast
3:15 PM 64.4 °F 53.6 °F 68% 30.17 in 10.0 mi North 5.8 mph - N/A   Overcast
3:55 PM 66.2 °F 53.6 °F 64% 30.16 in 10.0 mi North 10.4 mph - N/A   Mostly Cloudy
4:15 PM 64.4 °F 53.6 °F 68% 30.16 in 10.0 mi North 10.4 mph - N/A   Mostly Cloudy
4:35 PM 64.4 °F 53.6 °F 68% 30.16 in 10.0 mi NNE 11.5 mph - N/A   Overcast
4:55 PM 66.2 °F 55.4 °F 68% 30.16 in 10.0 mi NNE 11.5 mph - N/A   Mostly Cloudy
5:15 PM 64.4 °F 53.6 °F 68% 30.16 in 10.0 mi North 11.5 mph - N/A   Mostly Cloudy
5:35 PM 64.4 °F 53.6 °F 68% 30.17 in 10.0 mi NNE 8.1 mph - N/A   Mostly Cloudy
5:55 PM 62.6 °F 53.6 °F 72% 30.17 in 10.0 mi NNE 9.2 mph - N/A   Mostly Cloudy
6:15 PM 62.6 °F 51.8 °F 68% 30.17 in 10.0 mi NNE 9.2 mph - N/A   Overcast
6:35 PM 62.6 °F 51.8 °F 68% 30.17 in 10.0 mi North 8.1 mph - N/A   Mostly Cloudy
6:55 PM 62.6 °F 51.8 °F 68% 30.18 in 10.0 mi North 8.1 mph - N/A   Overcast
7:15 PM 62.6 °F 51.8 °F 68% 30.18 in 10.0 mi North 5.8 mph - N/A   Overcast
7:35 PM 60.8 °F 51.8 °F 72% 30.17 in 10.0 mi NE 5.8 mph - N/A   Mostly Cloudy
7:55 PM 60.8 °F 51.8 °F 72% 30.18 in 10.0 mi Calm Calm - N/A   Scattered Clouds
8:15 PM 59.0 °F 51.8 °F 77% 30.18 in 10.0 mi NNE 5.8 mph - N/A   Mostly Cloudy
8:35 PM 59.0 °F 51.8 °F 77% 30.18 in 10.0 mi NNE 3.5 mph - N/A   Mostly Cloudy
8:55 PM 59.0 °F 53.6 °F 82% 30.19 in 10.0 mi NNE 3.5 mph - N/A   Overcast
9:15 PM 59.0 °F 51.8 °F 77% 30.20 in 10.0 mi Calm Calm - N/A   Overcast
9:35 PM 59.0 °F 51.8 °F 77% 30.20 in 10.0 mi Calm Calm - N/A   Scattered Clouds
9:55 PM 57.2 °F 51.8 °F 82% 30.20 in 10.0 mi Calm Calm - N/A   Clear
10:15 PM 55.4 °F 51.8 °F 88% 30.21 in 10.0 mi Calm Calm - N/A   Clear
10:35 PM 55.4 °F 51.8 °F 88% 30.22 in 10.0 mi Calm Calm - N/A   Clear
10:55 PM 55.4 °F 51.8 °F 88% 30.22 in 10.0 mi Calm Calm - N/A   Clear
11:15 PM 53.6 °F 50.0 °F 88% 30.22 in 10.0 mi Calm Calm - N/A   Clear
11:35 PM 53.6 °F 50.0 °F 88% 30.23 in 10.0 mi Calm Calm - N/A   Clear
11:55 PM 51.8 °F 50.0 °F 94% 30.23 in 10.0 mi Calm Calm - N/A   Clear